SITRO-AIS 50

Last updated on Thu Nov 21 2024 00:03:40 GMT+0000 (Coordinated Universal Time)

1 59061U 24039L 24325.56152947 .00069877 00000+0 15063-2 0 9997 2 59061 97.4080 288.0702 0014590 37.3408 322.8851 15.44224855 40588
UTC large
Height (km)
Speed (km/s)
/
Latitude / Longitude
Inclination (degrees)
Orbital Period (minutes)
Azimuth
Elevation
Range (km)
Doppler Factor

Next 0 passes for location: London (51.5072 / 0.1276)

Sorry there are no passes over London.